Mobile, AL

4:18 AM CST on February 11, 2016 (GMT -0600)
Downtown Waterfront | | Change Station
CLOSE
Current Station
Personal Weather Station
Location: Mobile, AL
Elevation: 13 ft
Nearby Weather Stations

Elev 13 ft 30.69 °N, 88.04 °W | Updated 5 seconds ago

Clear
Clear
45.6 °F
Feels Like 46 °F
N
3.0
Wind Variable Wind from South
Gusts 6.0 mph

Today
High -- | Low -- °F
--% Chance of Precip.
Yesterday
High -- | Low -- °F
Precip. -- in
Pressure 30.22 in
Visibility 10.0 miles
Clouds Clear
Windchill 46 °F
Dew Point 36 °F
Humidity 70%
Rainfall 0.00 in
Snow Depth Not available.
6:36 AM 5:36 PM
Waxing Crescent, 11% visible
METAR KBFM 110953Z 00000KT 10SM CLR 05/02 A3022 RMK AO2 SLP234 T00500017
Pressure 30.22 in
Visibility 10.0 miles
Clouds Clear
Windchill 46 °F
Dew Point 36 °F
Humidity 70%
Rainfall 0.00 in
Snow Depth Not available.
6:36 AM 5:36 PM
Waxing Crescent, 11% visible
METAR KBFM 110953Z 00000KT 10SM CLR 05/02 A3022 RMK AO2 SLP234 T00500017

10-Day Weather Forecast

Almanac

Astronomy

Feb. 11, 2016 Rise Set
Actual Time
Civil Twilight
Nautical Twilight
Astronomical Twilight
Moon
Length of Visible Light
Length of Day
Tomorrow will be .
, % of the Moon is Illuminated

Today's Extremes

State Highs State Lows

Community

WunderPhotos

Upload Photos

1,892,030 photos uploaded!

WunderBlog® & News

Nearby

Air Quality

  Air Quality AQ Index Pollutant
Not available.

Snow Depth

Station Depth Elevation

Earthquake Activity

City Distance Mag. Time & Date
Minimum magnitude displayed is 2.5.

Coastal Water Temperatures

Place Temperature

Stations

Nearby Weather Stations

Station Location Temp. Windchill Dew Point Humidity Wind Precip. Elev Updated Type
                   

Watches & Warnings

There are currently no watches in effect.